www.pogodaiklimat.ru

Погода и климат >> Архив погоды >> Кувейт >> Эль-Джахра


ПОГОДА в Эль-Джахра

  • Прогноз погоды в Эль-Джахра
  • Монитор погоды в Эль-Джахра

АРХИВ ПОГОДЫ в Эль-Джахра

Время (UTC), дата Ветер
(напр.,м/с)
 
Видим.   Явления Облачность Т
(С)
Тd
(С)
f
(%)
Тe
(С)
Тes
(С)
Комфортность P
(гПа)
Po
(гПа)
Тmin
(С)
Tmax
(С)
R
(мм)
R24
(мм)
S
(см)
06 17.02 З 3-5
{6}
н/о н/о +16.1 +2.9 41 +16 +16 1022.3 1015.7
09 17.02 З 2-6
{6}
н/о н/о +20.5 -0.4 25 +21 +21 комфорт 1020.9 1014.4
12 17.02 СЗ 3-6
{9}
н/о н/о +22.1 -1.3 21 +21 +21 комфорт 1018.5 1012.0
15 17.02 СЗ 2-4
{8}
н/о н/о +19.8 -1.1 24 +20 +20 1018.5 1012.0
18 17.02 СЗ 1-2
{8}
н/о н/о +16.7 +1.9 37 +18 +18 1019.7 1013.1
21 17.02 З 1-1
{3}
н/о н/о +13.8 +4.5 53 +14 +14 1019.4 1012.7 +9.4 +22.5
00 18.02 З 2-2
{3}
н/о н/о +11.7 +5.6 66 +11 +11 1018.6 1011.9
03 18.02 З 1-1
{2}
н/о н/о +11.3 +6.1 70 +11 +11 1018.6 1011.9
06 18.02 З 1-2
{2}
н/о н/о +17.2 +6.4 49 +18 +18 1019.1 1012.5
09 18.02 З 3-7
{7}
н/о н/о +20.7 +0.1 25 +21 +21 комфорт 1017.5 1011.0
15 18.02 СЗ 2-5
{6}
н/о н/о +19.0 -0.2 27 +20 +20 1014.0 1007.5
18 18.02 СЗ 1-2
{6}
н/о н/о +17.6 +0.9 32 +19 +19 1014.8 1008.3
21 18.02 С 2-3
{5}
н/о н/о +15.4 +1.7 39 +15 +15 1013.8 1007.2 +10.9 +22.2
00 19.02 СВ 1-2
{5}
н/о н/о +14.1 +4.3 52 +15 +15 1013.8 1007.2
03 19.02 СЗ 1-3
{6}
н/о н/о +14.4 +4.1 50 +15 +15 1013.9 1007.3
06 19.02 СЗ 2-5
{6}
н/о н/о +15.4 +6.5 55 +15 +15 1015.9 1009.3
09 19.02 С 4-8
{9}
н/о н/о +18.1 +3.5 38 +18 +18 1016.0 1009.5
12 19.02 СЗ 3-8
{10}
н/о н/о +19.4 +1.0 29 +20 +20 1015.3 1008.8
15 19.02 СЗ 3-7
{10}
н/о н/о +17.6 +0.3 31 +18 +18 1017.0 1010.4
18 19.02 З 2-3
{10}
н/о н/о +14.9 +2.7 44 +15 +15 1019.1 1012.5
21 19.02 З 2-3
{4}
н/о н/о +11.7 +4.0 59 +11 +11 1019.5 1012.8 +11.7 +20.1
00 20.02 З 3-5
{5}
н/о н/о +10.7 +4.2 64 +9 +9 1019.4 1012.7
03 20.02 З 4-5
{5}
н/о н/о +9.7 +3.5 65 +7 +7 1020.2 1013.4
06 20.02 З 3-5
{7}
н/о н/о +15.3 +2.8 43 +15 +15 1021.8 1015.2
09 20.02 СЗ 2-5
{6}
н/о н/о +20.3 +1.8 29 +21 +21 комфорт 1021.1 1014.6
12 20.02 СЗ 2-6
{7}
н/о н/о +21.9 -0.1 23 +21 +21 комфорт 1019.5 1013.0
15 20.02 З 2-3
{7}
н/о н/о +19.0 -0.5 27 +20 +20 1019.9 1013.4
18 20.02 З 1-2
{7}
н/о н/о
21 20.02 ЮЗ 2-2
{1}
н/о н/о +12.6 +3.3 53 +12 +12 1021.3 1014.6 +9.6 +22.0
00 21.02 ЮЗ 2-2
{3}
н/о н/о +10.9 +3.4 60 +10 +10 1021.2 1014.5
03 21.02 ЮЗ 2-3
{3}
н/о н/о +9.8 +3.4 64 +8 +8 1021.8 1015.0
06 21.02 З 2-3
{3}
н/о н/о +17.7 +1.7 34 +18 +18 1023.4 1016.8
09 21.02 СЗ 2-4
{5}
н/о н/о +20.8 -0.2 25 +22 +22 комфорт 1021.9 1015.4
12 21.02 ЮЗ 2-3
{5}
н/о н/о +22.9 -3.6 17 +21 +21 комфорт 1019.8 1013.3
15 21.02 ЮВ 3-4
{4}
н/о н/о +18.7 +2.1 33 +19 +19 1020.3 1013.7
18 21.02 ЮЗ 1-1
{5}
н/о н/о +14.6 +6.2 57 +16 +16 1021.7 1015.0
21 21.02 ЮЗ 1-2
{2}
н/о н/о +13.2 +6.7 65 +13 +13 1021.0 1014.3 +9.5 +23.6
00 22.02 ЮЗ 1-1
{2}
н/о н/о +11.3 +6.8 74 +12 +12 1019.7 1013.0
03 22.02 З 1-1
{3}
н/о н/о +10.8 +7.5 80 +11 +11 1020.2 1013.5
06 22.02 Ю 1-2
{3}
н/о н/о +16.6 +7.8 56 +18 +18 1021.5 1014.9
09 22.02 В 2-5
{7}
н/о н/о +21.0 +1.6 28 +22 +22 комфорт 1019.1 1012.6
12 22.02 В 3-6
{8}
н/о н/о +22.0 -1.0 21 +21 +21 комфорт 1017.2 1010.7
15 22.02 В 2-6
{9}
н/о н/о +17.9 +2.1 35 +18 +18 1017.6 1011.0
18 22.02 В 2-3
{9}
н/о н/о +15.7 +7.7 59 +16 +16 1018.7 1012.1
21 22.02 В 1-3
{3}
н/о н/о +14.8 +8.9 68 +15 +15 1018.0 1011.4 +9.7 +24.1
00 23.02 СВ 2-2
{3}
н/о н/о +14.0 +9.7 75 +13 +13 1017.4 1010.8
03 23.02 В 1-2
{3}
н/о н/о +14.3 +11.0 81 +15 +15 1018.0 1011.4
06 23.02 В 3-5
{6}
н/о н/о +18.9 +12.1 65 +20 +20 1018.4 1011.9
09 23.02 В 4-11
{11}
н/о н/о +22.1 +10.3 47 +24 +24 комфорт 1017.2 1010.7
12 23.02 ЮВ 4-8
{11}
н/о н/о +22.7 +10.5 46 +25 +25 комфорт 1015.2 1008.8
15 23.02 В 2-4
{9}
н/о н/о +18.8 +7.8 49 +20 +20 1015.9 1009.4
18 23.02 В 1-3
{9}
н/о н/о +16.9 +12.8 77 +18 +18 1017.3 1010.7
21 23.02 ЮВ 1-1
{3}
н/о н/о +15.4 +13.1 86 +17 +17 1017.0 1010.4 +13.4 +23.3
00 24.02 ЮЗ 1-1
{3}
н/о н/о +13.3 +12.1 92 +13 +13 1016.4 1009.8
03 24.02 Ю 2-4
{4}
н/о н/о +14.7 +13.4 92 +15 +15 1017.1 1010.5

 

Местоположение метеостанции Эль-Джахра (Кувейт): широта 29.32 долгота 47.67 высота над уровнем моря 55 м.

В архиве по умолчанию представлена погода в Эль-Джахра за последнюю неделю. Архивные данные за месяц целиком и за предыдущие месяцы, начиная с января 2011 года, Вы можете получить, выбрав интересующий диапазон дат из раскрывающегося списка и нажав кнопку "Ввод!".


*Определитесь, кто Вы:
робот инопланетянин человек

Внимание! Время в таблицах - всемирное. Для получения местного времени необходимо прибавить поправку, которая равна 3 ч.

Смотрите также архив погоды в соседних городах и на ближайших метеорологических станциях:

Погода в Сулайбии (Кувейт) (7 км)
Погода на Экспериментальной ферме (Кувейт) (26 км)
Погода в Минагише (Кувейт) (31 км)
Погода в Эль-Кувейте (Кувейт) (31 км)
Погода на Метеостанции Jal Aliyah (Кувейт) (33 км)
Погода в Кувейт Сити (Кувейт) (37 км)
Погода в Аль-Шуаиба (Кувейт) (42 км)
Погода на Метеостанции Sabriyah (Кувейт) (51 км)
Погода Остров Файлака (Кувейт) (61 км)
Погода на Метеостанции Mintribah (Кувейт) (63 км)

Пояснения к столбцам:

Ветер - указаны скорость ветра в м/с - средняя за 10 мин, порывы в срок и между сроками (в фигурных скобках) и направление, откуда дует ветер: С - северный, СВ - северо-восточный, В - восточный, ЮВ - юго-восточный, Ю - южный, ЮЗ - юго-западный, З - западный, СЗ - северо-западный.
Видимость - горизонтальная дальность видимости в метрах или километрах. При видимости от 1 до 10 км при отсутствии осадков обычно наблюдается дымка, при ухудшении видимости до 1 км и менее - туман. В сухую погоду видимость может ухудшаться дымом, пылью или мглою.
Явления - указаны атмосферные явления, наблюдавшиеся в срок или в последний час перед сроком; фигурными скобками обозначены явления, наблюдавшиеся между сроками (за 1-3 часа до срока); квадратными скобками обозначены град или гололедные отложения с указанием их диаметра в мм.
Облачность - указаны через наклонную черту общая и нижняя облачность в баллах и высота нижней границы облаков в метрах; квадратными скобками обозначены формы облаков: Ci - перистые, Cs - перисто-слоистые, Cc - перисто-кучевые, Ac - высококучевые, As - высокослоистые, Sc - слоисто-кучевые, Ns - слоисто-дождевые, Cu - кучевые, Cb - кучево-дождевые. Подробнее классификацию облаков см. в Атласе облаков (PDF).
T - Температура воздуха - температура, измеренная на высоте 2 м над землей.
Td - Температура точки росы - температура, при понижении до которой содержащийся в воздухе водяной пар достигнет насыщения.
f - Относительная влажность воздуха - влажноcть воздуха, измеренная на высоте 2 м над землей.
Te - Эффективная температура - температура, которую ощущает одетый по сезону человек в тени. Характеристика душности погоды. При расчете учитывается влияние влажности воздуха и скорости ветра на теплоощущения человека.
Tes - Эффективная температура на солнце - температура, которую ощущает человек, с поправкой на солнечный нагрев. Характеристика знойности погоды. Зависит от высоты солнца над горизонтом, облачности и скорости ветра. Ночью, в пасмурную погоду, а также при ветре 12 м/с и более поправка равна нулю.
P - Атмосферное давление - приведенное к уровню моря атмосферное давление.
Po - Атмосферное давление - измеренное на уровне метеостанции атмосферное давление.
Tmin - Минимальная температура - минимум температуры воздуха на высоте 2 м над землей.
Tmax - Максимальная температура - максимум температуры воздуха на высоте 2 м над землей.
R - Количество осадков - Количество выпавших осадков за период времени, мм. При наведении курсора мыши на число - период времени, за который выпало указанное количество осадков.
R24 - Количество осадков - Количество выпавших осадков за 24 часа, мм.
S - Снежный покров - Высота снежного покрова, см. При наведении курсора мыши на число - состояние снежного покрова и степень покрытия местности в баллах.